Tracking 25734 objects as of 26-May-2022
HD Live streaming from Space Station
objects crossing your sky now

SL-12 DEB

Track SL-12 DEB now!
10-day predictions


NORAD ID: 29328
Int'l Code: 1989-039AK
Perigee: 566.9 km
Apogee: 18,714.9 km
Inclination: 65.0 °
Period: 336.1 minutes
Semi major axis: 16011 km
RCS: 0.0222 m2 (small)
Launch date: May 31, 1989
Source: Commonwealth of Independent States (former USSR) (CIS)
Launch site: TYURATAM MISSILE AND SPACE COMPLEX (TTMTR)

Note: This is SATELLITE DEBRIS
aabbcc
Your satellite tracking list
Your tracking list is empty




NASA's NSSDC Master Catalog

Two Line Element Set (TLE):
1 29328U 89039AK  22143.03123404  .00000478  00000-0  19545-2 0  9997
2 29328  64.9785   4.1582 5667025 166.9665 355.7584  4.28488701247210
Source of the keplerian elements: AFSPC